PST,Max TemperatureF,Mean TemperatureF,Min TemperatureF,Max Dew PointF,MeanDew PointF,Min DewpointF,Max Humidity, Mean Humidity, Min Humidity, Max Sea Level PressureIn, Mean Sea Level PressureIn, Min Sea Level PressureIn, Max VisibilityMiles, Mean VisibilityMiles, Min VisibilityMiles, Max Wind SpeedMPH, Mean Wind SpeedMPH, Max Gust SpeedMPH,PrecipitationIn, CloudCover, Events, WindDirDegrees
2011-11-1,74,65,56,43,25,15,51,32,12,30.09,30.05,29.99,10,10,10,30,16,39,0.00,0,,336
2011-11-2,73,58,42,40,28,18,45,32,18,30.17,30.08,30.01,10,10,10,16,5,23,0.00,0,,26
2011-11-3,65,56,46,46,39,32,66,48,30,30.01,29.86,29.77,10,10,10,24,6,30,T,3,Rain,212
2011-11-4,59,48,36,41,38,34,100,70,40,29.91,29.87,29.82,10,10,10,13,4,17,0.00,0,Fog,322
2011-11-5,56,46,35,46,38,32,92,72,51,30.02,29.95,29.91,10,10,7,12,3,16,T,5,Rain,145
2011-11-6,57,52,47,45,43,39,86,71,55,30.13,30.01,29.92,10,10,8,15,6,24,T,7,Rain,272
2011-11-7,60,50,40,43,40,38,96,74,51,30.27,30.22,30.15,10,9,6,8,3,13,0.00,1,,323
2011-11-8,61,48,35,43,39,34,93,71,49,30.35,30.31,30.27,10,9,5,12,1,14,0.00,0,,352
2011-11-9,64,50,35,43,38,34,100,72,43,30.32,30.27,30.17,10,5,0,8,1,12,0.00,0,Fog,355
2011-11-10,67,52,36,41,38,36,100,66,32,30.20,30.09,29.93,10,8,2,9,1,14,0.00,0,,333
2011-11-11,59,49,39,50,42,36,92,72,51,29.92,29.84,29.78,10,9,2,12,3,13,T,5,Rain,14
2011-11-12,65,56,46,51,48,46,100,76,52,29.96,29.87,29.83,10,5,0,12,4,14,T,2,Fog-Rain,344
2011-11-13,68,57,45,49,47,44,100,71,42,30.00,29.96,29.92,10,9,4,14,3,16,0.00,1,,327
2011-11-14,66,57,47,49,47,45,93,75,56,30.06,30.00,29.96,10,9,4,12,4,16,0.00,2,,254
2011-11-15,67,54,41,48,43,38,100,71,42,30.19,30.12,30.06,10,6,1,13,2,15,0.00,0,,7
2011-11-16,70,55,39,46,43,38,100,69,37,30.24,30.18,30.14,10,9,5,6,0,12,0.00,0,,167
2011-11-17,66,55,43,51,47,42,100,78,56,30.19,30.10,30.01,10,10,6,15,6,18,0.00,2,,184
2011-11-18,59,53,46,49,45,41,93,73,53,30.04,29.98,29.91,10,10,6,20,6,24,0.03,2,Rain,195
2011-11-19,55,45,34,44,36,33,100,73,46,29.99,29.93,29.76,10,5,0,12,2,15,0.00,2,Fog-Rain,141
2011-11-20,58,53,48,47,45,43,86,76,66,30.04,29.88,29.73,10,10,9,20,10,26,0.10,7,Rain,94
2011-11-21,57,48,38,47,41,36,100,84,67,30.27,30.16,30.06,10,5,0,8,1,12,0.00,1,Fog,169
2011-11-22,61,51,41,47,42,39,100,76,51,30.30,30.23,30.11,10,7,0,13,2,16,0.00,2,Fog,141
2011-11-23,57,49,40,45,43,38,96,79,62,30.08,29.93,29.85,10,9,5,7,2,13,0.00,4,,104
2011-11-24,55,51,46,52,48,43,100,90,80,30.23,30.09,29.88,10,5,1,10,3,13,0.23,7,Rain,148
2011-11-25,59,51,43,49,45,41,93,80,67,30.38,30.34,30.23,10,6,0,15,3,17,0.00,2,Fog,324
2011-11-26,55,48,40,50,45,39,100,89,77,30.43,30.38,30.34,7,2,0,7,1,12,0.00,5,Fog,341
2011-11-27,56,51,45,49,47,45,100,89,77,30.38,30.33,30.28,7,2,0,7,3,10,0.00,3,Fog,358
2011-11-28,60,53,46,50,46,41,100,84,67,30.32,30.26,30.21,10,3,0,7,1,10,0.00,2,Fog,249
2011-11-29,49,46,42,47,44,41,100,96,92,30.29,30.23,30.19,3,1,0,7,2,10,0.00,8,Fog,143
2011-11-30,64,54,43,45,38,23,100,66,31,30.25,30.21,30.14,10,7,1,35,7,45,0.00,4,,345